Weather in Tarskoye

Russia / Republic of North Ossetia — Alania     42°57′52″N   44°46′16″E
temp.,
°C
wind,
m/s
gust,
m/s
humid.,
%
clouds,
%
prec.,
mm/h
press.,
hPa
HPBL,
m
20 september, mon
mon2000:00+14s21700 0.0 101418
03:00+13s21685 0.0 101417
06:00+13s22644 0.0 101518
09:00+20n114830 0.0 1013447
12:00+23n224491 0.0 10131307
15:00+22ne225278 0.5 10131291
18:00+16ssw118699 2.3 101540
21:00+14ssw219252 5.1 101728
21 september, tue
tue2100:00+14s22885 1.3 101734
03:00+13s21876 1.3 101715
06:00+12sse22855 0.0 101624
09:00+18n11677 0.0 1015460
12:00+22nne32525 0.0 10121135
15:00+22ne325040 0.1 10111239
18:00+15sse11859 1.1 101226
21:00+14s2281100 1.3 101435
22 september, wed
wed2200:00+13ssw117888 0.0 101424
03:00+12wsw1289100 0.0 1015105
06:00+12nw019199 0.0 1014132
09:00+14n119096 0.1 1013362
12:00+13nnw2294100 1.1 1013386
15:00+13wnw1297100 4.4 1013221
18:00+12nnw1198100 0.9 101481
21:00+12n1198100 1.3 1014132
23 september, thu
thu2300:00+11nw1299100 0.6 1014230
03:00+11nw129997 0.8 1013251
06:00+10wnw1298100 0.4 1013277
09:00+10nw1298100 0.8 1013245
12:00+11ne1194100 2.6 1011270
15:00+12n229098 2.8 1009416
18:00+11nnw1196100 0.1 1010192
21:00+11nw1299100 1.1 1010173
24 september, fri
fri2400:00+10nw129999 0.9 1008333
03:00+10nw129999 1.0 1009358
06:00+10nw129898 0.1 1010227
09:00+10nw1294100 0.1 1011364
12:00+12nnw228699 0.1 1011573
15:00+12nnw1288100 0.4 1013453
18:00+10wnw1298100 4.7 1015226
21:00+10e119897 12.4 1016115